Find Zhongxing 20A

NORAD ID: 37234 Int'l Des: 2010-064 Owner: ZZB Country: CN operational
HEOCIRCULAR

当前视图

正在加载3D地球...

关于 Zhongxing 20A

正在加载描述...

即将过境

Passes for default location (London). Set your location on the main map for personalized predictions.

高度历史

Loading altitude history...

两行轨道根数

1 37234U 10064A 26144.95332995 .00000020 00000-0 00000-0 0 9994
2 37234 7.2192 81.9579 0023666 271.8769 289.2042 0.98415591 56532
Epoch: May 24, 2026 • Age: 35 hours

当前状态

高度 36303.0 km
速度 3.06 km/s
星下点 -0.52°S, 47.9°E
发射日期 Nov 24, 2010
运行时间 15.5 years
类型 other

技术详情

分类 Payload
质量 2325.00 kg
干质量 1100.00 kg
总质量 2325.00 kg
长度 5.70 m
直径 1.70 m
跨度 18.10 m
形状 Box + 2 Pan
制造商 CAST
平台类型 DFH-3
阶段状态 In Orbit
所有者/国家 ZZB/CN

Most Searched